[[{"header":{"parameterUnit":"m.s-1","parameterCategory":2,"la1":30.2991,"la2":30.254,"lo1":-89.0895,"lo2":-89.0444,"dy":0.0017,"dx":0.0017,"nx":28,"ny":28,"refTime":"2026-01-31T09:00:00:Z","depth":"0","parameterNumber":2,"parameterNumberName":"U-component_of_CURRENTS"},"data":[0,0,0,0,0,0,0,0,0,0,0,0,0,0,0,0,0,0,0,0,0,0,0,0,0,0,0,0,0,0,0,0,0,0,0,0,0,0,0,0,0,0,0,0,0,0,0,0,0,0,0,0,0,0,0,0,0,0,0.3436,0.3436,0,0.3446,0.3446,0.3446,0.3423,0.3422,0.3422,0.3421,0.3388,0.3387,0.3387,0,0,0,0,0,0,0,0,0,0,0,0,0,0.3394,0.3395,0.3436,0.3436,0.3436,0.3446,0.3446,0.3446,0.3423,0.3422,0.3422,0.3421,0.3388,0.3387,0.3387,0,0,0,0,0,0,0,0,0,0,0,0,0,0.3406,0.3395,0.3435,0.3428,0.3428,0.3446,0.3446,0.3446,0.3423,0.3422,0.3422,0.3421,0.3388,0.3387,0.3387,0.3397,0,0,0.3385,0.3384,0,0,0,0,0,0,0,0,0.3406,0.3408,0.3429,0.3429,0.3428,0.3435,0.3419,0.3428,0.3423,0.3422,0.3421,0.3421,0.3402,0.34,0.34,0.3396,0.3394,0.3385,0.3384,0.3384,0.3384,0,0,0,0,0,0,0,0.3405,0.3407,0.3437,0.3429,0.3429,0.3424,0.3425,0.3421,0.3413,0.3422,0.3421,0.3427,0.3401,0.3401,0.3399,0.3394,0.3385,0.3384,0.3384,0.3383,0.3426,0.3427,0,0,0,0,0,0,0.341,0.3406,0.3437,0.3437,0.3418,0.3426,0.3426,0.3431,0.3414,0.3412,0.3428,0.3426,0.3402,0.34,0.3398,0.3431,0.3384,0.3383,0.3383,0.3424,0.3426,0.3428,0,0,0,0,0,0,0.3409,0.3413,0.3436,0.3424,0.3427,0.3427,0.3433,0.3432,0.3437,0.3419,0.3415,0.3435,0.3402,0.3399,0.3406,0.3428,0.3383,0.3382,0.3422,0.3425,0.3427,0.3483,0,0,0,0,0,0,0.3408,0.3412,0.3417,0.3425,0.3428,0.3456,0.3434,0.3433,0.3443,0.3441,0.3424,0.342,0.3401,0.3407,0.3406,0.3427,0.3382,0.342,0.3423,0.3426,0.3479,0.3487,0.3494,0,0,0,0,0,0.3407,0.3418,0.3417,0.3421,0.3435,0.3458,0.3459,0.3454,0.3444,0.3454,0.3444,0.3421,0.3424,0.3408,0.3405,0.3427,0.3419,0.3422,0.3426,0.3476,0.3486,0.3493,0,0,0,0,0,0,0.3404,0.3417,0.3416,0.3431,0.3448,0.3455,0.3464,0.3463,0.3464,0.346,0.3437,0.3433,0.3451,0.3435,0.3417,0.345,0.3419,0.3423,0.3459,0.3467,0.3474,0.3495,0.3381,0,0,0,0,0,0.3407,0.3416,0.3433,0.3446,0.3456,0.3462,0.3471,0.3472,0.3475,0.3475,0.3463,0.3457,0.3464,0.3461,0.3462,0.3475,0.3487,0.349,0.3497,0.3503,0.352,0.3556,0.3569,0.3439,0.3439,0.3439,0,0,0.3408,0.3419,0.3423,0.3446,0.3456,0.3479,0.3465,0.3486,0.3505,0.3471,0.3487,0.3483,0.3476,0.3494,0.35,0.348,0.355,0.3507,0.3512,0.3526,0.3561,0.3574,0.3585,0.3441,0.3441,0.344,0,0,0.3422,0.3429,0.3444,0.3462,0.3488,0.3496,0.3507,0.3521,0.3527,0.3545,0.3533,0.3548,0.3541,0.355,0.3552,0.3602,0.3591,0.3596,0.3642,0.3677,0.3688,0.3698,0.3743,0.3756,0.3594,0.3594,0.3594,0,0.3424,0.3444,0.3453,0.3479,0.3496,0.3507,0.3533,0.3549,0.3562,0.3576,0.3557,0.3584,0.3574,0.3614,0.3631,0.3619,0.3638,0.3606,0.3687,0.3697,0.3706,0.3749,0.3763,0.3597,0.3597,0.3597,0.3596,0,0.345,0.3469,0.3484,0.3516,0.3538,0.3564,0.359,0.3611,0.3616,0.363,0.3668,0.3664,0.3681,0.3682,0.367,0.3732,0.3726,0.3695,0.3664,0.3722,0.3764,0.3778,0.3602,0.3601,0.36,0.3599,0,0,0.3449,0.3492,0.3497,0.3515,0.356,0.3578,0.3622,0.3664,0.3704,0.3711,0.3761,0.3774,0.3777,0.3782,0.3773,0.3803,0.3884,0.3779,0.3779,0.3822,0.3975,0.3988,0.4003,0.3863,0.3865,0.3867,0.3983,0,0.3467,0.3508,0.353,0.3573,0.3596,0.3627,0.3669,0.3709,0.3746,0.3799,0.3813,0.3858,0.3814,0.3836,0.3857,0.3886,0.392,0.3856,0.3914,0.3916,0.3919,0.402,0.4025,0.4131,0.3996,0.3999,0.4,0,0.3486,0.351,0.3547,0.36,0.3615,0.3643,0.3715,0.3759,0.3841,0.388,0.3925,0.3941,0.4001,0.3951,0.4022,0.3982,0.399,0.4,0.4004,0.4007,0.3954,0.4049,0.416,0.4188,0.4021,0.4019,0.4018,0,0.347,0.3524,0.3548,0.3566,0.3628,0.3652,0.3691,0.3774,0.3834,0.3943,0.3997,0.4056,0.41,0.4118,0.4133,0.4088,0.4214,0.4148,0.4168,0.4168,0.4183,0.4181,0.4328,0.4205,0.4205,0.4205,0.4204,0,0.3477,0.3498,0.3538,0.3552,0.3597,0.3644,0.3714,0.3781,0.389,0.3966,0.4032,0.4107,0.4144,0.4203,0.4194,0.4245,0.4262,0.4216,0.4213,0.4203,0.4202,0.4231,0.4227,0.4209,0.4208,0.4207,0.4206,0,0.3456,0.3482,0.3514,0.3568,0.3588,0.362,0.3719,0.377,0.3891,0.3998,0.4039,0.4175,0.4268,0.43,0.4368,0.4336,0.4322,0.4378,0.4375,0.437,0.439,0.4388,0.4281,0.4134,0.443,0.4431,0.4432,0,0.3448,0.3458,0.351,0.3521,0.3541,0.3597,0.3632,0.3759,0.3825,0.4026,0.407,0.4222,0.4324,0.4459,0.4481,0.4525,0.4378,0.4507,0.4416,0.4438,0.4434,0.4195,0.4058,0.4463,0.4465,0.4466,0.4466,0,0.3425,0.3439,0.3455,0.3483,0.3508,0.3546,0.361,0.3672,0.3819,0.394,0.4101,0.4219,0.4408,0.4495,0.4578,0.4587,0.4406,0.4526,0.4557,0.4502,0.4244,0.4086,0.4341,0.4475,0.4474,0.4474,0.4473,0.4473,0.3394,0.3393,0.3406,0.3427,0.345,0.3463,0.3463,0.3563,0.3678,0.3833,0.4025,0.4209,0.4485,0.4639,0.4599,0.4665,0.4468,0.4608,0.4616,0.4376,0.4201,0.4484,0.4598,0.4598,0.4597,0.4597,0.4597,0,0.333,0.3329,0.3346,0.3343,0.332,0.3369,0.3413,0.3404,0.3483,0.3761,0.3918,0.4289,0.4488,0.4655,0.4871,0.4817,0.4512,0.4733,0.4449,0.4308,0.4631,0.4607,0.4719,0.4719,0.4719,0.4719,0.4719,0.4719,0.3292,0.3261,0.3267,0.3203,0.3196,0.3122,0.3115,0.3149,0.3316,0.3567,0.3821,0.4063,0.4633,0.5132,0.5223,0.5066,0.4697,0.4557,0.4398,0.4777,0.4765,0.4753,0.4732,0.4868,0.4868,0.3914,0.3909,0.3905]},{"header":{"parameterUnit":"m.s-1","parameterCategory":2,"la1":30.2991,"la2":30.254,"lo1":-89.0895,"lo2":-89.0444,"dy":0.0017,"dx":0.0017,"nx":28,"ny":28,"refTime":"2026-01-31T09:00:00:Z","depth":"0","parameterNumber":3,"parameterNumberName":"V-component_of_CURRENTS"},"data":[0,0,0,0,0,0,0,0,0,0,0,0,0,0,0,0,0,0,0,0,0,0,0,0,0,0,0,0,0,0,0,0,0,0,0,0,0,0,0,0,0,0,0,0,0,0,0,0,0,0,0,0,0,0,0,0,0,0,-0.002,-0.0021,0,-0.0079,-0.0079,-0.008,-0.0129,-0.0129,-0.013,-0.013,-0.02,-0.0202,-0.0203,0,0,0,0,0,0,0,0,0,0,0,0,0,-0.0011,-0.0011,-0.002,-0.0021,-0.0021,-0.0078,-0.0079,-0.008,-0.0129,-0.0129,-0.013,-0.013,-0.02,-0.0202,-0.0204,0,0,0,0,0,0,0,0,0,0,0,0,0,-0.0038,-0.0011,-0.002,-0.0051,-0.0054,-0.0078,-0.0079,-0.0081,-0.0129,-0.0129,-0.013,-0.013,-0.0199,-0.0202,-0.0204,-0.0207,0,0,-0.0211,-0.0212,0,0,0,0,0,0,0,0,-0.0037,-0.0039,-0.0046,-0.0049,-0.0053,-0.0096,-0.0102,-0.0123,-0.0129,-0.0102,-0.013,-0.0131,-0.0165,-0.017,-0.0182,-0.021,-0.0213,-0.0211,-0.0212,-0.0213,-0.0214,0,0,0,0,0,0,0,-0.0034,-0.0037,-0.0045,-0.0047,-0.0051,-0.0083,-0.0087,-0.0107,-0.0131,-0.0105,-0.0108,-0.0112,-0.0167,-0.018,-0.0184,-0.0214,-0.0211,-0.0213,-0.0214,-0.0215,-0.0251,-0.025,0,0,0,0,0,0,-0.002,-0.0034,-0.0043,-0.0047,-0.0044,-0.0082,-0.0087,-0.0083,-0.0131,-0.0138,-0.0111,-0.0114,-0.0176,-0.0181,-0.0187,-0.0177,-0.0213,-0.0216,-0.0217,-0.0251,-0.0251,-0.025,0,0,0,0,0,0,-0.0019,-0.002,-0.0041,-0.0041,-0.0046,-0.0081,-0.0076,-0.0083,-0.0093,-0.0135,-0.0143,-0.0112,-0.0176,-0.0184,-0.0197,-0.0181,-0.0217,-0.0219,-0.0252,-0.0251,-0.025,-0.0169,0,0,0,0,0,0,-0.0019,-0.0019,-0.0013,-0.004,-0.0045,-0.0042,-0.0076,-0.0084,-0.0093,-0.0097,-0.0139,-0.0146,-0.0177,-0.0193,-0.0199,-0.0185,-0.022,-0.0252,-0.0251,-0.0251,-0.0172,-0.0165,-0.016,0,0,0,0,0,-0.0018,0.0003,-0.0012,-0.0013,-0.0034,-0.0041,-0.0046,-0.0075,-0.0092,-0.0088,-0.0119,-0.0145,-0.0193,-0.0194,-0.0202,-0.0188,-0.0253,-0.0252,-0.0251,-0.0175,-0.0167,-0.016,0,0,0,0,0,0,0.0011,-0.0001,-0.0017,-0.0002,-0.0017,-0.0048,-0.0046,-0.0067,-0.0088,-0.0093,-0.0137,-0.0146,-0.0155,-0.0182,-0.0183,-0.0197,-0.0228,-0.0228,-0.0168,-0.016,-0.0154,-0.0131,-0.0222,0,0,0,0,0,0.0021,0.0032,0.0011,0.0022,0.0018,-0.0014,-0.0021,-0.0039,-0.0061,-0.0072,-0.0102,-0.0134,-0.0157,-0.0166,-0.0193,-0.0194,-0.0231,-0.0192,-0.0186,-0.018,-0.0167,-0.0213,-0.0209,-0.0247,-0.0247,-0.0247,0,0,0.0034,0.003,0.0034,0.0029,0.0012,0.0025,-0.002,-0.0021,-0.0012,-0.0075,-0.0074,-0.0114,-0.0154,-0.016,-0.0166,-0.0179,-0.019,-0.0179,-0.0174,-0.0163,-0.0211,-0.0208,-0.0204,-0.0246,-0.0246,-0.0246,0,0,0.0076,0.0064,0.0088,0.0083,0.0071,0.0055,0.006,0.0034,0.002,0.0013,-0.003,-0.0056,-0.009,-0.0115,-0.0132,-0.0106,-0.0158,-0.0118,-0.0062,-0.0107,-0.0104,-0.0102,-0.0144,-0.0146,-0.0111,-0.0111,-0.0111,0,0.0092,0.0122,0.0094,0.0117,0.0124,0.0077,0.0109,0.009,0.0061,0.0059,0.0026,-0.0029,-0.0067,-0.0071,-0.0066,-0.0091,-0.0126,-0.0085,-0.0098,-0.0096,-0.0096,-0.014,-0.0143,-0.0107,-0.0107,-0.0108,-0.0108,0,0.0153,0.0174,0.019,0.0206,0.0209,0.0227,0.0204,0.0198,0.017,0.0148,0.0126,0.0063,0.0034,0.0012,-0.0019,-0.0026,-0.0056,-0.0087,-0.0113,-0.0087,-0.0135,-0.014,-0.0101,-0.0103,-0.0104,-0.0105,0,0,0.0198,0.0229,0.0234,0.0262,0.026,0.0275,0.0287,0.0292,0.0311,0.0251,0.0263,0.0201,0.0156,0.0134,0.0081,0.004,0.0008,-0.0012,-0.0017,-0.0046,-0.009,-0.012,-0.0129,-0.0027,-0.0028,-0.0028,-0.0126,0,0.0255,0.0328,0.0323,0.0389,0.0427,0.0395,0.0414,0.0406,0.0387,0.0382,0.03,0.0287,0.0206,0.0194,0.0138,0.0045,-0.0002,0.0037,-0.0117,-0.0121,-0.0145,-0.0134,-0.0141,-0.0229,-0.0131,-0.0132,-0.0133,0,0.032,0.0363,0.0441,0.0493,0.0505,0.0529,0.0562,0.058,0.0552,0.0533,0.0491,0.0423,0.0358,0.0281,0.0128,0.0156,0.0046,-0.004,-0.0046,-0.0103,-0.016,-0.0241,-0.0243,-0.0528,-0.0141,-0.0141,-0.014,0,0.0381,0.0449,0.0519,0.0536,0.0578,0.0601,0.0624,0.0623,0.0665,0.0635,0.0648,0.0541,0.0501,0.0346,0.0161,0.0146,-0.0015,-0.0061,-0.0195,-0.0199,-0.0249,-0.0256,-0.0536,-0.017,-0.017,-0.017,-0.0169,0,0.0451,0.0507,0.0552,0.059,0.0679,0.0676,0.0764,0.0764,0.0788,0.0853,0.0735,0.075,0.0515,0.039,0.0203,-0.0006,0.0012,-0.018,-0.0224,-0.0221,-0.0224,-0.051,-0.069,-0.0173,-0.0173,-0.0172,-0.0171,0,0.051,0.0535,0.0624,0.0684,0.0712,0.0778,0.0875,0.0941,0.0938,0.1016,0.1012,0.0911,0.0748,0.05,0.0253,0.0067,-0.0325,-0.0222,-0.0202,-0.0241,-0.0631,-0.0805,-0.1152,-0.1311,-0.0384,-0.0386,-0.0387,0,0.0547,0.0599,0.0704,0.077,0.0802,0.0901,0.0976,0.1016,0.1105,0.1126,0.1178,0.1038,0.0981,0.0595,0.0231,-0.0107,-0.0386,-0.0343,-0.0378,-0.0654,-0.0881,-0.1016,-0.1134,-0.0418,-0.0419,-0.042,-0.0421,0,0.0625,0.0657,0.0734,0.0874,0.0967,0.1093,0.1205,0.13,0.1353,0.1416,0.1472,0.1424,0.1039,0.0705,0.0218,-0.0042,-0.0593,-0.0374,-0.0673,-0.0941,-0.1096,-0.1267,-0.0358,-0.043,-0.0429,-0.0429,-0.0428,-0.0428,0.0682,0.0755,0.0857,0.0993,0.1112,0.1269,0.1396,0.1521,0.1675,0.1795,0.1718,0.1719,0.1169,0.0513,0.0096,-0.0662,-0.0692,-0.0877,-0.1066,-0.1176,-0.134,-0.0446,-0.0559,-0.0559,-0.0559,-0.0559,-0.0559,0,0.0759,0.0843,0.0973,0.1138,0.1285,0.1332,0.1543,0.1682,0.1882,0.2002,0.2058,0.1789,0.1118,0.0405,-0.0602,-0.1198,-0.1452,-0.156,-0.1772,-0.1859,-0.1065,-0.1075,-0.1289,-0.1289,-0.1289,-0.1288,-0.1288,-0.1288,0.0801,0.0935,0.1005,0.1255,0.1378,0.1596,0.173,0.1929,0.2087,0.2238,0.2253,0.2191,0.1608,-0.0246,-0.1537,-0.1864,-0.2368,-0.2495,-0.273,-0.2202,-0.2152,-0.2105,-0.2156,-0.2593,-0.2595,-0.3434,-0.3443,-0.345]}],[{"header":{"parameterUnit":"m.s-1","parameterCategory":2,"la1":30.2991,"la2":30.254,"lo1":-89.0895,"lo2":-89.0444,"dy":0.0017,"dx":0.0017,"nx":28,"ny":28,"refTime":"2026-01-31T09:00:00:Z","depth":"2","parameterNumber":2,"parameterNumberName":"U-component_of_CURRENTS"},"data":[0,0,0,0,0,0,0,0,0,0,0,0,0,0,0,0,0,0,0,0,0,0,0,0,0,0,0,0,0,0,0,0,0,0,0,0,0,0,0,0,0,0,0,0,0,0,0,0,0,0,0,0,0,0,0,0,0,0,0.3389,0.339,0,0.34,0.34,0.34,0.3378,0.3378,0.3378,0.3377,0.3345,0.3345,0.3344,0,0,0,0,0,0,0,0,0,0,0,0,0,0.3348,0.3349,0.3389,0.339,0.339,0.34,0.34,0.34,0.3378,0.3378,0.3377,0.3377,0.3345,0.3345,0.3344,0,0,0,0,0,0,0,0,0,0,0,0,0,0.3361,0.3349,0.3389,0.3383,0.3383,0.34,0.34,0.34,0.3379,0.3378,0.3377,0.3377,0.3346,0.3345,0.3344,0.3353,0,0,0.3342,0.3342,0,0,0,0,0,0,0,0,0.336,0.3362,0.3383,0.3383,0.3383,0.339,0.3374,0.3383,0.3379,0.3377,0.3377,0.3376,0.3359,0.3357,0.3357,0.3352,0.3351,0.3342,0.3342,0.3342,0.3341,0,0,0,0,0,0,0,0.3359,0.3361,0.3391,0.3384,0.3384,0.3379,0.338,0.3376,0.3368,0.3377,0.3376,0.3382,0.3358,0.3357,0.3356,0.335,0.3342,0.3342,0.3341,0.3341,0.3383,0.3384,0,0,0,0,0,0,0.3365,0.3361,0.339,0.3391,0.3373,0.338,0.3381,0.3386,0.3369,0.3367,0.3383,0.3381,0.3359,0.3357,0.3355,0.3388,0.3342,0.3341,0.3341,0.3381,0.3383,0.3385,0,0,0,0,0,0,0.3364,0.3367,0.339,0.3378,0.3381,0.3382,0.3388,0.3387,0.3393,0.3375,0.3371,0.3391,0.3358,0.3355,0.3363,0.3386,0.3341,0.334,0.338,0.3382,0.3384,0.3441,0,0,0,0,0,0,0.3362,0.3367,0.3372,0.3379,0.3382,0.341,0.3389,0.3387,0.3398,0.3396,0.3381,0.3376,0.3358,0.3365,0.3363,0.3384,0.3339,0.3378,0.3381,0.3383,0.3437,0.3445,0.3451,0,0,0,0,0,0.3361,0.3372,0.3372,0.3375,0.3389,0.3411,0.3413,0.3408,0.34,0.341,0.34,0.3377,0.3381,0.3365,0.3363,0.3385,0.3376,0.338,0.3383,0.3434,0.3443,0.3451,0,0,0,0,0,0,0.3359,0.3372,0.3371,0.3386,0.3402,0.3409,0.3419,0.3418,0.3419,0.3416,0.3393,0.3389,0.3408,0.3392,0.3375,0.3407,0.3377,0.338,0.3416,0.3425,0.3432,0.3452,0.3339,0,0,0,0,0,0.3362,0.3371,0.3387,0.3401,0.3411,0.3417,0.3425,0.3427,0.3431,0.343,0.3419,0.3414,0.3421,0.3418,0.3419,0.3432,0.3444,0.3447,0.3454,0.346,0.3477,0.3513,0.3525,0.3396,0.3396,0.3396,0,0,0.3363,0.3374,0.3378,0.3401,0.3411,0.3434,0.342,0.3441,0.346,0.3427,0.3443,0.3439,0.3432,0.3451,0.3457,0.3437,0.3506,0.3464,0.347,0.3483,0.3518,0.353,0.3541,0.3398,0.3398,0.3398,0,0,0.3377,0.3385,0.3399,0.3418,0.3443,0.3451,0.3462,0.3476,0.3483,0.3501,0.3489,0.3504,0.3498,0.3507,0.3508,0.3558,0.3547,0.3553,0.3598,0.3633,0.3644,0.3654,0.3698,0.3711,0.3551,0.3551,0.3551,0,0.338,0.3399,0.3409,0.3434,0.3451,0.3463,0.3488,0.3504,0.3517,0.3531,0.3513,0.354,0.3531,0.357,0.3587,0.3575,0.3594,0.3563,0.3643,0.3653,0.3662,0.3704,0.3718,0.3554,0.3554,0.3553,0.3553,0,0.3406,0.3425,0.344,0.3472,0.3493,0.3519,0.3545,0.3565,0.3571,0.3585,0.3623,0.362,0.3637,0.3638,0.3626,0.3688,0.3681,0.3651,0.362,0.3678,0.3719,0.3732,0.3559,0.3557,0.3557,0.3556,0,0,0.3405,0.3448,0.3453,0.347,0.3515,0.3533,0.3577,0.3618,0.3657,0.3665,0.3715,0.3729,0.3732,0.3736,0.3728,0.3758,0.3838,0.3734,0.3734,0.3777,0.3929,0.3939,0.3954,0.3817,0.382,0.3822,0.3936,0,0.3424,0.3463,0.3485,0.3528,0.3551,0.3581,0.3623,0.3663,0.37,0.3752,0.3766,0.3811,0.3768,0.3791,0.3812,0.384,0.3874,0.3811,0.3867,0.387,0.3871,0.3971,0.3563,0.3633,0.3949,0.3951,0.3953,0,0.3443,0.3466,0.3503,0.3554,0.3569,0.3597,0.3669,0.3712,0.3793,0.3832,0.3878,0.3894,0.3953,0.3905,0.3975,0.3935,0.3943,0.3953,0.3957,0.3958,0.3906,0.3624,0.3645,0.3975,0.3973,0.3971,0.397,0,0.3427,0.348,0.3504,0.3521,0.3583,0.3607,0.3646,0.3728,0.3787,0.3896,0.395,0.4007,0.4052,0.407,0.4084,0.404,0.4165,0.41,0.4117,0.4117,0.378,0.3748,0.4156,0.4155,0.4155,0.4155,0.4155,0,0.3435,0.3456,0.3495,0.3508,0.3554,0.36,0.367,0.3736,0.3844,0.392,0.3985,0.4059,0.4095,0.4154,0.4145,0.4194,0.4212,0.4164,0.4161,0.3792,0.3761,0.4053,0.4039,0.4159,0.4158,0.4157,0.4157,0,0.3415,0.3441,0.3471,0.3525,0.3545,0.3577,0.3676,0.3726,0.3846,0.3953,0.3993,0.4128,0.4219,0.425,0.4316,0.4284,0.4322,0.4324,0.3909,0.3858,0.4235,0.4223,0.437,0.4372,0.4373,0.4374,0.4375,0,0.3407,0.3417,0.3469,0.3479,0.35,0.3556,0.3591,0.3717,0.3782,0.398,0.4024,0.4174,0.4257,0.4389,0.4311,0.4326,0.4396,0.402,0.3873,0.4282,0.4264,0.4249,0.4236,0.3435,0.3428,0.3422,0.3418,0,0.3385,0.3399,0.3415,0.3443,0.3468,0.3505,0.357,0.363,0.3776,0.3878,0.4035,0.4136,0.4232,0.4076,0.4117,0.4066,0.3989,0.3917,0.4427,0.3479,0.3419,0.3395,0.3408,0.3368,0.3373,0.3377,0.3379,0.3381,0.3355,0.3354,0.3367,0.3388,0.3411,0.3424,0.3423,0.3458,0.3546,0.3584,0.3839,0.3815,0.3853,0.3701,0.3611,0.3521,0.3798,0.3618,0.3625,0.3641,0.3548,0.3498,0.3444,0.3449,0.3453,0.3457,0.3461,0,0.3257,0.3291,0.3308,0.3305,0.324,0.3331,0.3374,0.3266,0.3239,0.3313,0.336,0.3108,0.3033,0.3087,0.2849,0.2912,0.2776,0.2835,0.2576,0.263,0.2677,0.2524,0.2153,0.215,0.2146,0.2143,0,0,0.321,0.3162,0.3166,0.3081,0.3108,0.2968,0.296,0.2836,0.2798,0.2669,0.2621,0.2778,0.2975,0.2474,0.2445,0.2258,0.2418,0.2179,0.3225,0.297,0.3012,0.3134,0.2966,0,0,0,0,0]},{"header":{"parameterUnit":"m.s-1","parameterCategory":2,"la1":30.2991,"la2":30.254,"lo1":-89.0895,"lo2":-89.0444,"dy":0.0017,"dx":0.0017,"nx":28,"ny":28,"refTime":"2026-01-31T09:00:00:Z","depth":"2","parameterNumber":3,"parameterNumberName":"V-component_of_CURRENTS"},"data":[0,0,0,0,0,0,0,0,0,0,0,0,0,0,0,0,0,0,0,0,0,0,0,0,0,0,0,0,0,0,0,0,0,0,0,0,0,0,0,0,0,0,0,0,0,0,0,0,0,0,0,0,0,0,0,0,0,0,0.0019,0.0018,0,-0.0039,-0.004,-0.0041,-0.009,-0.009,-0.009,-0.0091,-0.0161,-0.0162,-0.0164,0,0,0,0,0,0,0,0,0,0,0,0,0,0.0028,0.0028,0.0019,0.0018,0.0017,-0.0039,-0.004,-0.0041,-0.009,-0.009,-0.009,-0.0091,-0.016,-0.0162,-0.0164,0,0,0,0,0,0,0,0,0,0,0,0,0,0.0001,0.0028,0.0019,-0.0012,-0.0016,-0.0039,-0.004,-0.0041,-0.0089,-0.009,-0.0091,-0.0091,-0.016,-0.0162,-0.0164,-0.0166,0,0,-0.0171,-0.0172,0,0,0,0,0,0,0,0,0.0002,0.0,-0.0007,-0.001,-0.0014,-0.0056,-0.0062,-0.0083,-0.0089,-0.0063,-0.0091,-0.0091,-0.0125,-0.013,-0.0142,-0.017,-0.0173,-0.0171,-0.0172,-0.0173,-0.0174,0,0,0,0,0,0,0,0.0004,0.0002,-0.0006,-0.0008,-0.0012,-0.0044,-0.0048,-0.0067,-0.0092,-0.0066,-0.0069,-0.0072,-0.0128,-0.014,-0.0144,-0.0174,-0.0171,-0.0173,-0.0174,-0.0175,-0.021,-0.0209,0,0,0,0,0,0,0.0019,0.0004,-0.0004,-0.0008,-0.0005,-0.0043,-0.0048,-0.0043,-0.0092,-0.0099,-0.0072,-0.0074,-0.0136,-0.0142,-0.0147,-0.0138,-0.0173,-0.0176,-0.0177,-0.021,-0.021,-0.0209,0,0,0,0,0,0,0.0019,0.0019,-0.0002,-0.0002,-0.0007,-0.0042,-0.0037,-0.0044,-0.0054,-0.0096,-0.0104,-0.0073,-0.0136,-0.0144,-0.0157,-0.0141,-0.0177,-0.0179,-0.0211,-0.021,-0.0209,-0.0129,0,0,0,0,0,0,0.002,0.002,0.0026,-0.0001,-0.0006,-0.0003,-0.0037,-0.0045,-0.0054,-0.0058,-0.01,-0.0107,-0.0138,-0.0153,-0.0159,-0.0145,-0.018,-0.0211,-0.021,-0.021,-0.0132,-0.0125,-0.012,0,0,0,0,0,0.0021,0.0041,0.0027,0.0026,0.0005,-0.0002,-0.0007,-0.0036,-0.0053,-0.0049,-0.008,-0.0106,-0.0153,-0.0154,-0.0162,-0.0148,-0.0212,-0.0211,-0.021,-0.0135,-0.0127,-0.012,0,0,0,0,0,0,0.005,0.0037,0.0021,0.0037,0.0022,-0.0009,-0.0007,-0.0028,-0.0049,-0.0054,-0.0097,-0.0106,-0.0115,-0.0142,-0.0143,-0.0157,-0.0187,-0.0188,-0.0128,-0.0121,-0.0115,-0.0092,-0.0182,0,0,0,0,0,0.0059,0.007,0.0049,0.006,0.0057,0.0024,0.0017,-0.0,-0.0023,-0.0033,-0.0063,-0.0095,-0.0117,-0.0126,-0.0153,-0.0154,-0.019,-0.0152,-0.0146,-0.014,-0.0127,-0.0173,-0.0169,-0.0206,-0.0206,-0.0206,0,0,0.0072,0.0068,0.0072,0.0067,0.0051,0.0063,0.0019,0.0017,0.0026,-0.0036,-0.0035,-0.0075,-0.0114,-0.012,-0.0126,-0.0138,-0.015,-0.0139,-0.0134,-0.0124,-0.0171,-0.0168,-0.0165,-0.0205,-0.0205,-0.0205,0,0,0.0114,0.0101,0.0126,0.0121,0.0108,0.0093,0.0098,0.0072,0.0058,0.0051,0.0008,-0.0018,-0.0051,-0.0076,-0.0092,-0.0067,-0.0119,-0.0079,-0.0024,-0.0068,-0.0065,-0.0063,-0.0106,-0.0108,-0.0072,-0.0072,-0.0071,0,0.0129,0.0159,0.0131,0.0154,0.0162,0.0115,0.0146,0.0127,0.0099,0.0096,0.0064,0.0009,-0.0028,-0.0033,-0.0027,-0.0051,-0.0087,-0.0046,-0.0059,-0.0058,-0.0057,-0.0101,-0.0105,-0.0068,-0.0068,-0.0068,-0.0069,0,0.019,0.0211,0.0226,0.0242,0.0245,0.0264,0.024,0.0234,0.0207,0.0184,0.0163,0.01,0.0072,0.005,0.002,0.0012,-0.0018,-0.0048,-0.0074,-0.0048,-0.0097,-0.0102,-0.0062,-0.0063,-0.0064,-0.0065,0,0,0.0234,0.0265,0.027,0.0298,0.0296,0.0311,0.0323,0.0328,0.0346,0.0287,0.0299,0.0237,0.0193,0.0171,0.0118,0.0077,0.0044,0.0025,0.0021,-0.001,-0.0054,-0.0084,-0.0094,0.001,0.0009,0.0009,-0.009,0,0.0291,0.0363,0.0358,0.0424,0.0462,0.0431,0.0449,0.0442,0.0422,0.0417,0.0335,0.0322,0.0242,0.0229,0.0174,0.0082,0.0035,0.0074,-0.008,-0.0084,-0.0109,-0.0099,-0.0072,-0.0158,-0.0095,-0.0096,-0.0097,0,0.0355,0.0398,0.0476,0.0527,0.0539,0.0564,0.0596,0.0613,0.0586,0.0566,0.0524,0.0457,0.0392,0.0315,0.0163,0.0191,0.0081,-0.0004,-0.001,-0.0068,-0.0124,-0.0175,-0.017,-0.0107,-0.0106,-0.0105,-0.0104,0,0.0415,0.0483,0.0553,0.0569,0.0612,0.0635,0.0657,0.0656,0.0698,0.0667,0.068,0.0573,0.0532,0.0378,0.0194,0.018,0.0018,-0.0027,-0.0161,-0.0165,-0.0185,-0.019,-0.0136,-0.0136,-0.0135,-0.0135,-0.0135,0,0.0485,0.054,0.0585,0.0623,0.0711,0.0709,0.0796,0.0796,0.0819,0.0883,0.0765,0.078,0.0546,0.042,0.0235,0.0026,0.0044,-0.0146,-0.019,-0.0157,-0.0158,-0.0148,-0.0148,-0.0139,-0.0138,-0.0137,-0.0137,0,0.0542,0.0567,0.0657,0.0716,0.0744,0.0809,0.0906,0.0971,0.0967,0.1044,0.104,0.0938,0.0774,0.0528,0.0281,0.0097,-0.0109,-0.019,-0.0136,-0.0171,-0.0276,-0.0271,-0.035,-0.0352,-0.0354,-0.0355,-0.0356,0,0.0579,0.0631,0.0735,0.0801,0.0832,0.0931,0.1005,0.1045,0.1133,0.1153,0.1203,0.1062,0.0999,0.0614,0.0261,-0.0074,-0.0117,-0.0278,-0.0306,-0.0262,-0.0297,-0.0289,-0.0282,-0.0306,-0.0306,-0.0307,-0.0307,0,0.0656,0.0687,0.0765,0.0903,0.0996,0.1121,0.1233,0.1326,0.1379,0.1433,0.1485,0.1431,0.1056,0.0718,0.0235,0.0008,-0.0227,-0.0299,-0.0267,-0.0251,-0.0227,-0.0259,-0.0252,-0.0311,-0.0311,-0.0311,-0.031,-0.031,0.0713,0.0784,0.0886,0.1022,0.1139,0.1295,0.1421,0.1522,0.1665,0.1735,0.1678,0.1579,0.1189,0.0571,0.0176,-0.0255,-0.0238,-0.0396,-0.0392,-0.0388,-0.036,-0.034,-0.044,-0.0441,-0.0441,-0.0441,-0.0441,0,0.0796,0.0872,0.1001,0.1164,0.1313,0.1358,0.1566,0.1675,0.1834,0.185,0.1858,0.1488,0.1078,0.0632,0.0,-0.0367,-0.0388,-0.049,-0.0433,-0.0426,-0.0421,-0.0393,-0.0484,-0.0485,-0.0486,-0.0487,0,0,0.084,0.0975,0.1045,0.1288,0.1405,0.1611,0.1743,0.187,0.1935,0.1968,0.1888,0.1709,0.1192,0.0724,0.0224,-0.0129,-0.0192,-0.0202,-0.0129,0.0004,0.0015,-0.0332,-0.0277,0,0,0,0,0]}],[{"header":{"parameterUnit":"m.s-1","parameterCategory":2,"la1":30.2991,"la2":30.254,"lo1":-89.0895,"lo2":-89.0444,"dy":0.0017,"dx":0.0017,"nx":28,"ny":28,"refTime":"2026-01-31T09:00:00:Z","depth":"4","parameterNumber":2,"parameterNumberName":"U-component_of_CURRENTS"},"data":[0,0,0,0,0,0,0,0,0,0,0,0,0,0,0,0,0,0,0,0,0,0,0,0,0,0,0,0,0,0,0,0,0,0,0,0,0,0,0,0,0,0,0,0,0,0,0,0,0,0,0,0,0,0,0,0,0,0,0.1875,0.1876,0,0.1956,0.1956,0.1957,0.2018,0.2019,0.202,0.202,0.2109,0.211,0.2112,0,0,0,0,0,0,0,0,0,0,0,0,0,0.1764,0.1765,0.1875,0.1876,0.1877,0.1956,0.1956,0.1957,0.2018,0.2019,0.202,0.2021,0.2108,0.211,0.2112,0,0,0,0,0,0,0,0,0,0,0,0,0,0.1823,0.1766,0.1875,0.1918,0.1923,0.1955,0.1956,0.1958,0.2018,0.2019,0.202,0.2021,0.2107,0.211,0.2112,0.2106,0,0,0.212,0.2121,0,0,0,0,0,0,0,0,0.182,0.1827,0.1911,0.1916,0.1921,0.198,0.195,0.2008,0.2018,0.198,0.202,0.2022,0.2067,0.2073,0.2082,0.211,0.2114,0.212,0.2122,0.2123,0.2123,0,0,0,0,0,0,0,0.1815,0.1824,0.1905,0.1912,0.1918,0.1931,0.194,0.1961,0.2015,0.1983,0.1988,0.2,0.2069,0.208,0.2085,0.2115,0.212,0.2122,0.2124,0.2125,0.2271,0.2273,0,0,0,0,0,0,0.1809,0.182,0.1902,0.1908,0.1874,0.1932,0.1943,0.1958,0.2015,0.2025,0.1999,0.2003,0.2075,0.2082,0.2088,0.2201,0.2123,0.2125,0.2127,0.2269,0.2271,0.2274,0,0,0,0,0,0,0.1806,0.1816,0.1899,0.1867,0.1879,0.1933,0.195,0.1959,0.2013,0.2027,0.2037,0.2049,0.2076,0.2085,0.2151,0.2201,0.2126,0.2128,0.2266,0.2269,0.2273,0.2352,0,0,0,0,0,0,0.1803,0.1814,0.1843,0.1866,0.188,0.1947,0.1949,0.196,0.2017,0.2024,0.2072,0.2079,0.2078,0.2147,0.2153,0.2203,0.213,0.2263,0.2267,0.2272,0.2346,0.2358,0.2368,0,0,0,0,0,0.1799,0.1826,0.1844,0.1855,0.1911,0.1948,0.1958,0.1997,0.2019,0.2049,0.2089,0.2079,0.218,0.2151,0.2158,0.2209,0.2261,0.2266,0.2271,0.2342,0.2356,0.2367,0,0,0,0,0,0,0.1794,0.1836,0.1855,0.1896,0.1934,0.196,0.1999,0.2022,0.2076,0.2098,0.2107,0.2117,0.2195,0.2192,0.2159,0.2266,0.222,0.2227,0.2271,0.2284,0.2295,0.2302,0.2132,0,0,0,0,0,0.1805,0.1842,0.1876,0.1915,0.1938,0.1977,0.2006,0.2034,0.2074,0.2102,0.2135,0.2175,0.2214,0.2242,0.2272,0.2327,0.2328,0.2366,0.2377,0.2386,0.2397,0.244,0.2455,0.2292,0.2292,0.2292,0,0,0.1815,0.1844,0.1867,0.1919,0.1954,0.1995,0.1999,0.2057,0.2103,0.2101,0.2189,0.2217,0.2238,0.2305,0.2339,0.2314,0.2435,0.2392,0.24,0.2407,0.2447,0.2462,0.2476,0.2295,0.2295,0.2294,0,0,0.1839,0.1882,0.1917,0.1953,0.2015,0.2039,0.2065,0.2119,0.2162,0.2233,0.2251,0.2313,0.237,0.2398,0.2415,0.2503,0.2492,0.2519,0.2579,0.262,0.2633,0.2645,0.2673,0.2686,0.2522,0.2523,0.2523,0,0.1853,0.1898,0.1935,0.1976,0.2015,0.2063,0.2109,0.2154,0.2227,0.2268,0.2277,0.2391,0.2412,0.2489,0.2527,0.2528,0.2545,0.2525,0.2633,0.2645,0.2655,0.2681,0.2695,0.2527,0.2527,0.2526,0.2526,0,0.1888,0.1942,0.197,0.2038,0.2084,0.2136,0.2194,0.2259,0.2316,0.2356,0.2462,0.2499,0.2565,0.2586,0.2587,0.2681,0.2667,0.2641,0.2596,0.2677,0.2698,0.2711,0.2533,0.2532,0.253,0.2529,0,0,0.1869,0.1973,0.1988,0.2031,0.2124,0.2159,0.2251,0.2333,0.2407,0.2481,0.2571,0.2647,0.268,0.2703,0.272,0.2761,0.2855,0.2745,0.2746,0.2766,0.295,0.2763,0.2759,0.2852,0.2854,0.2857,0.2936,0,0.1889,0.1969,0.2022,0.2111,0.2156,0.2234,0.2313,0.24,0.2483,0.2583,0.264,0.2736,0.272,0.2777,0.2815,0.2855,0.2894,0.2836,0.2875,0.2877,0.2695,0.2769,0.2865,0.2945,0.2948,0.295,0.2952,0,0.1897,0.1953,0.2039,0.2152,0.2182,0.2251,0.239,0.2469,0.2607,0.2679,0.2776,0.2827,0.2927,0.2895,0.299,0.2959,0.2969,0.2979,0.2982,0.2787,0.2713,0.2848,0.2975,0.2973,0.2971,0.297,0.2968,0,0.1844,0.1962,0.2033,0.2072,0.2206,0.2278,0.2364,0.2506,0.2592,0.2759,0.2838,0.2944,0.3021,0.3056,0.3085,0.3058,0.3167,0.3122,0.2957,0.2945,0.3053,0.3039,0.318,0.318,0.318,0.318,0.318,0,0.1819,0.1881,0.2025,0.2061,0.2165,0.2272,0.2403,0.2508,0.267,0.2764,0.2891,0.2966,0.3071,0.3133,0.3133,0.3084,0.3204,0.2982,0.2956,0.3085,0.3074,0.3062,0.3047,0.3183,0.3182,0.3182,0.3181,0,0.1744,0.1838,0.1926,0.2083,0.2142,0.2222,0.2416,0.2497,0.2672,0.2803,0.2864,0.3024,0.3096,0.316,0.3229,0.3128,0.3113,0.3063,0.3215,0.3194,0.2853,0.2842,0.2884,0.2878,0.2873,0.2869,0.2865,0,0.1706,0.1748,0.1924,0.198,0.2061,0.2199,0.2286,0.2481,0.2564,0.2798,0.2832,0.2985,0.3058,0.3003,0.3087,0.3076,0.303,0.3005,0.2908,0.2854,0.2826,0.2822,0.2818,0.2857,0.2856,0.2855,0.2853,0,0.1631,0.1714,0.1786,0.1904,0.2006,0.2103,0.2244,0.2293,0.25,0.2678,0.2734,0.2774,0.2847,0.2878,0.2898,0.2879,0.3012,0.2952,0.2961,0.2869,0.2822,0.2798,0.28,0.2836,0.2839,0.284,0.2841,0,0.1579,0.1607,0.1712,0.1801,0.1916,0.1965,0.2062,0.2149,0.2256,0.2504,0.2515,0.2665,0.2816,0.2777,0.2793,0.2767,0.2711,0.2606,0.2632,0.2652,0.2536,0.2441,0.2326,0,0,0,0,0,0.1511,0.1524,0.1596,0.1676,0.1781,0.1845,0.2006,0.2103,0.2302,0.2277,0.2392,0.2443,0.2475,0.2556,0.2478,0.2687,0.2722,0.2585,0.2615,0.2741,0.2761,0.2644,0,0,0,0,0,0,0.1463,0.1521,0.1545,0.155,0.1576,0.1669,0.1761,0.1897,0.1897,0.2104,0.2131,0.2285,0.235,0.248,0.2424,0.2448,0.2415,0.2686,0.2679,0.2729,0.2747,0.2763,0.265,0,0,0,0,0]},{"header":{"parameterUnit":"m.s-1","parameterCategory":2,"la1":30.2991,"la2":30.254,"lo1":-89.0895,"lo2":-89.0444,"dy":0.0017,"dx":0.0017,"nx":28,"ny":28,"refTime":"2026-01-31T09:00:00:Z","depth":"4","parameterNumber":3,"parameterNumberName":"V-component_of_CURRENTS"},"data":[0,0,0,0,0,0,0,0,0,0,0,0,0,0,0,0,0,0,0,0,0,0,0,0,0,0,0,0,0,0,0,0,0,0,0,0,0,0,0,0,0,0,0,0,0,0,0,0,0,0,0,0,0,0,0,0,0,0,0.029,0.0289,0,0.0249,0.0249,0.0248,0.0221,0.0221,0.0221,0.0221,0.0172,0.0171,0.017,0,0,0,0,0,0,0,0,0,0,0,0,0,0.0303,0.0303,0.029,0.0289,0.0289,0.0249,0.0249,0.0248,0.0221,0.0221,0.0221,0.0221,0.0172,0.0171,0.017,0,0,0,0,0,0,0,0,0,0,0,0,0,0.0283,0.0303,0.029,0.0271,0.0269,0.0249,0.0249,0.0248,0.0221,0.0221,0.0221,0.022,0.0173,0.0171,0.0169,0.0161,0,0,0.0164,0.0163,0,0,0,0,0,0,0,0,0.0284,0.0282,0.0274,0.0273,0.027,0.0241,0.0236,0.0219,0.0221,0.0238,0.0221,0.022,0.0195,0.0191,0.0183,0.0159,0.0157,0.0164,0.0163,0.0162,0.0161,0,0,0,0,0,0,0,0.0286,0.0284,0.0273,0.0274,0.0271,0.0251,0.0249,0.0232,0.0217,0.0237,0.0235,0.0232,0.0194,0.0185,0.0181,0.0156,0.0164,0.0162,0.0161,0.016,0.0117,0.0117,0,0,0,0,0,0,0.0295,0.0285,0.0274,0.0271,0.0278,0.0252,0.0248,0.025,0.0217,0.0213,0.0232,0.0231,0.0188,0.0184,0.018,0.0177,0.0162,0.016,0.0159,0.0117,0.0117,0.0117,0,0,0,0,0,0,0.0295,0.0294,0.0276,0.0278,0.0274,0.0252,0.0253,0.0249,0.0244,0.0214,0.0209,0.0232,0.0187,0.0182,0.0169,0.0175,0.0159,0.0158,0.0117,0.0117,0.0117,0.0166,0,0,0,0,0,0,0.0296,0.0295,0.0301,0.0279,0.0274,0.0271,0.0253,0.0248,0.0242,0.024,0.0212,0.0207,0.0187,0.0172,0.0168,0.0172,0.0156,0.0117,0.0117,0.0117,0.0165,0.0168,0.0171,0,0,0,0,0,0.0297,0.0309,0.0302,0.0301,0.0283,0.0272,0.0268,0.025,0.0243,0.0244,0.0224,0.0208,0.0168,0.0171,0.0165,0.0169,0.0117,0.0117,0.0117,0.0163,0.0167,0.017,0,0,0,0,0,0,0.0318,0.0307,0.0299,0.0307,0.0293,0.0268,0.027,0.0256,0.024,0.0241,0.0211,0.0204,0.0193,0.0173,0.0178,0.0155,0.0138,0.0137,0.0176,0.0179,0.0182,0.02,0.0155,0,0,0,0,0,0.0327,0.0333,0.0314,0.0321,0.0317,0.0294,0.0288,0.0276,0.0259,0.0252,0.023,0.0207,0.0187,0.0178,0.0157,0.0149,0.0118,0.0145,0.0148,0.0151,0.0161,0.0114,0.0113,0.0116,0.0116,0.0116,0,0,0.0337,0.0332,0.0335,0.0326,0.0315,0.0319,0.029,0.0287,0.0289,0.0249,0.0247,0.0218,0.0186,0.0175,0.0168,0.0161,0.0132,0.0151,0.0154,0.0162,0.0113,0.0113,0.0113,0.0116,0.0116,0.0116,0,0,0.0363,0.0357,0.0372,0.0365,0.0354,0.0341,0.0343,0.0321,0.031,0.0301,0.0271,0.0247,0.022,0.0196,0.0181,0.0187,0.0148,0.0178,0.021,0.0164,0.0164,0.0163,0.0118,0.0113,0.0181,0.0181,0.0181,0,0.0377,0.0393,0.0373,0.0384,0.0388,0.0355,0.0373,0.0356,0.0331,0.0326,0.0308,0.0258,0.023,0.0212,0.0213,0.0195,0.0163,0.0202,0.0169,0.0168,0.0166,0.012,0.0114,0.0183,0.0183,0.0183,0.0183,0,0.0412,0.0426,0.0434,0.0441,0.044,0.045,0.0428,0.042,0.0401,0.0382,0.0357,0.0308,0.0282,0.0262,0.0242,0.0219,0.0196,0.0178,0.0164,0.0169,0.012,0.0113,0.0187,0.0186,0.0185,0.0185,0,0,0.0442,0.0458,0.0462,0.0481,0.0474,0.0481,0.0481,0.0475,0.0483,0.0437,0.0435,0.0383,0.0352,0.0333,0.0292,0.025,0.0206,0.0217,0.0213,0.0179,0.0104,0.0087,0.0077,0.0181,0.018,0.0179,0.0072,0,0.0478,0.0519,0.0515,0.0556,0.0578,0.0555,0.0561,0.0548,0.0529,0.0516,0.0449,0.0433,0.038,0.0369,0.0317,0.0239,0.019,0.0237,0.0098,0.0094,0.0084,0.0069,0.0177,0.0067,0.0065,0.0064,0.0063,0,0.0516,0.054,0.059,0.0621,0.0629,0.0647,0.0661,0.0664,0.063,0.0613,0.0573,0.0521,0.0456,0.0409,0.0269,0.0301,0.0212,0.014,0.0134,0.01,0.0064,0.0059,0.0049,0.005,0.0051,0.0052,0.0053,0,0.0554,0.0596,0.0644,0.0654,0.0677,0.0697,0.0709,0.0697,0.0715,0.068,0.0681,0.0587,0.0547,0.042,0.0271,0.027,0.0109,0.0087,-0.0018,-0.0021,0.0006,0.0008,-0.0016,-0.0015,-0.0015,-0.0015,-0.0015,0,0.0594,0.0633,0.067,0.0695,0.0756,0.0751,0.081,0.0801,0.0803,0.0828,0.0741,0.0722,0.0548,0.0433,0.029,0.0114,0.0118,-0.0014,-0.0049,0.0028,0.0033,-0.0,0.0003,-0.0019,-0.0018,-0.0017,-0.0017,0,0.0628,0.0649,0.071,0.0754,0.0779,0.0823,0.0891,0.0925,0.0914,0.0942,0.0934,0.0825,0.0669,0.0483,0.0272,0.0147,-0.0023,-0.0088,0.0011,-0.0017,-0.0128,-0.0121,-0.0214,-0.0215,-0.0217,-0.0218,-0.0219,0,0.0647,0.0683,0.0764,0.0812,0.084,0.0912,0.0961,0.0983,0.1023,0.1,0.1009,0.0875,0.0775,0.0467,0.0265,-0.0017,-0.0059,-0.0151,-0.0145,-0.0123,-0.0149,-0.014,-0.0131,-0.0221,-0.0221,-0.0221,-0.0222,0,0.0685,0.0717,0.0768,0.087,0.0941,0.1026,0.1095,0.1131,0.1145,0.1139,0.1066,0.0898,0.0717,0.0469,0.0249,0.0046,-0.0093,-0.0165,-0.0164,-0.0159,-0.0133,-0.0154,-0.0145,-0.0226,-0.0225,-0.0225,-0.0225,0,0.0715,0.0759,0.0833,0.0922,0.1017,0.1101,0.1139,0.117,0.1201,0.1162,0.1134,0.0929,0.0811,0.0501,0.0299,0.0096,0.004,-0.0028,-0.0035,-0.0033,0.0047,0.0108,0.0058,0,0,0,0,0,0.0739,0.0791,0.0878,0.0974,0.107,0.1133,0.121,0.1235,0.1246,0.1205,0.1172,0.0998,0.0682,0.0544,0.0339,0.0268,0.0004,0.0019,-0.0078,-0.025,-0.0245,-0.0184,0,0,0,0,0,0,0.0752,0.0835,0.0877,0.1002,0.108,0.1192,0.1246,0.1257,0.123,0.1202,0.104,0.0947,0.0645,0.0808,0.0339,0.0275,0.0183,-0.0128,-0.0133,-0.0253,-0.0248,-0.0244,-0.018,0,0,0,0,0]}]]